Location: Peebles
(55.6412°N, 3.1714°W)
Time: 21:02:52
(UTC+01:00)

Transit 4A - Visible Passes

Search period start: 02 October 2022 00:00
Search period end: 12 October 2022 00:00
Orbit: 869 x 974 km, 66.8° (Epoch: 02 October)

Date Brightness Start Highest point End Pass type
(mag) Time Alt. Az. Time Alt. Az. Time Alt. Az.
02 Oct 9.4 01:06:51 30° NE 01:06:51 30° NE 01:09:44 10° NE visible
02 Oct 9.1 02:50:21 32° NNW 02:51:03 33° NNW 02:56:22 10° NE visible
02 Oct 9.4 04:33:51 10° NW 04:39:00 29° N 04:44:06 10° ENE visible
02 Oct 8.6 06:20:47 10° NW 06:26:36 52° NE 06:32:17 10° ESE visible
02 Oct 10.3 23:32:20 11° NE 23:32:20 11° NE 23:32:29 10° NE visible
03 Oct 9.3 01:15:50 31° NNE 01:15:50 31° NNE 01:19:00 10° NE visible
03 Oct 9.3 02:59:20 28° NW 03:00:38 30° NNW 03:05:49 10° NE visible
03 Oct 9.4 04:43:18 10° NW 04:48:35 31° NNE 04:53:47 10° ENE visible
03 Oct 8.3 06:30:04 10° NW 06:35:59 64° NE 06:41:46 10° ESE visible
03 Oct 10.2 23:41:20 12° NE 23:41:20 12° NE 23:41:49 10° NE visible
04 Oct 9.3 01:24:50 32° NNE 01:24:50 32° NNE 01:28:17 10° NE visible
04 Oct 9.4 03:08:20 24° NW 03:10:13 29° N 03:15:19 10° NE visible
04 Oct 9.2 04:52:43 10° NW 04:58:09 35° NNE 05:03:29 10° E visible
04 Oct 8.0 06:39:20 10° NW 06:45:18 80° NE 06:51:08 10° SE visible
04 Oct 10.1 23:50:21 14° NE 23:50:21 14° NE 23:51:07 10° NE visible
05 Oct 9.3 01:33:51 32° NNE 01:33:51 32° NNE 01:37:35 10° NE visible
05 Oct 9.5 03:17:21 21° NW 03:19:50 28° N 03:24:52 10° ENE visible
05 Oct 9.0 05:02:06 10° NW 05:07:40 39° NNE 05:13:08 10° E visible
05 Oct 10.1 23:59:23 15° NE 23:59:23 15° NE 00:00:23 10° NE visible
06 Oct 9.4 01:42:53 31° N 01:42:53 31° N 01:46:56 10° NE visible
06 Oct 9.5 03:26:23 19° NW 03:29:26 28° N 03:34:30 10° ENE visible
06 Oct 8.8 05:11:25 10° NW 05:17:08 46° NNE 05:22:45 10° ESE visible
07 Oct 10.0 00:08:27 17° NE 00:08:27 17° NE 00:09:38 10° NE visible
07 Oct 9.4 01:51:57 30° N 01:51:57 30° N 01:56:20 10° NE visible
07 Oct 9.4 03:35:28 17° NW 03:39:02 30° N 03:44:09 10° ENE visible
07 Oct 8.4 05:20:43 10° NW 05:26:34 56° NE 05:32:17 10° ESE visible
08 Oct 10.0 00:17:34 17° NE 00:17:34 17° NE 00:18:55 10° NE visible
08 Oct 9.5 02:01:04 29° N 02:01:04 29° N 02:05:47 10° NE visible
08 Oct 9.3 03:44:35 16° NW 03:48:37 32° NNE 03:53:50 10° E visible
08 Oct 8.1 05:30:00 10° NW 05:35:55 69° NE 05:41:44 10° SE visible
09 Oct 10.0 00:26:44 18° NE 00:26:44 18° NE 00:28:12 10° NE visible
09 Oct 9.5 02:10:15 28° N 02:10:15 28° N 02:15:19 10° NE visible
09 Oct 9.1 03:53:47 15° NW 03:58:09 36° NNE 04:03:32 10° E visible
09 Oct 7.8 05:39:17 10° NW 05:45:13 87° NE 05:51:03 10° SE visible
10 Oct 10.1 00:36:01 17° NE 00:36:01 17° NE 00:37:31 10° NE visible
10 Oct 9.5 02:19:33 28° N 02:19:52 28° N 02:24:54 10° ENE visible
10 Oct 8.9 04:03:04 15° NW 04:07:40 41° NNE 04:13:10 10° E visible
10 Oct 7.7 05:48:34 10° NW 05:54:27 74° SW 06:00:15 10° SSE visible
11 Oct 10.1 00:45:26 17° NE 00:45:26 17° NE 00:46:53 10° NE visible
11 Oct 9.5 02:28:58 28° N 02:29:29 29° N 02:34:32 10° ENE visible
11 Oct 8.6 04:12:31 16° NW 04:17:07 49° NNE 04:22:46 10° ESE visible
11 Oct 7.8 05:57:53 10° NW 06:03:38 56° WSW 06:09:17 10° SSE visible
11 Oct 9.7 21:11:39 10° S 21:12:45 15° S 21:12:45 15° S visible
11 Oct10.723:11:30NE23:11:30NE22:56:23WSWvisible
